Humidity-temperature Sensor

Selected Measurement Type: Relative Humidity

 
Relative Humidity [%]     6 entries per hour
Showing data from 9/14/2017 (08:30:00 Z) to 9/13/2017 (00:01:00 Z)
Previous Next [ Day | 3-Days | 7-Days ]
First Last
Prev [ Day | 3-Days | 7-Days ] Next
First Last

Start Time:     :
End Time:     :     
Time (in GMT) :00 :50 :40 :30 :20 :10
Previous Next [ Day | 3-Days | 7-Days ]
First Last
Prev [ Day | 3-Days | 7-Days ] Next
First Last


123 => good data
MM => data is determined as missing
-- => data not received/configured
Back to Top Back to Top
9/14/2017 09:00 to 8:10 -- -- -- 72.26 70.66 69.31
9/14/2017 08:00 to 7:10 69.69 68.87 69.90 70.40 70.57 70.47
9/14/2017 07:00 to 6:10 73.04 73.10 73.25 73.48 72.45 72.59
9/14/2017 06:00 to 5:10 -- -- -- -- -- --
9/14/2017 05:00 to 4:10 75.44 73.88 75.71 75.29 74.64 75.10
9/14/2017 04:00 to 3:10 74.89 72.28 71.25 76.55 78.34 81.53
9/14/2017 03:00 to 2:10 84.16 87.34 89.11 84.68 80.28 80.91
9/14/2017 02:00 to 1:10 81.10 82.14 81.93 81.36 81.99 81.97
9/14/2017 01:00 to 0:10 82.22 84.60 85.95 89.07 91.30 87.55
9/14/2017 00:00 to 23:10 83.23 81.23 81.48 81.44 88.88 89.00
9/13/2017 23:00 to 22:10 88.18 90.37 93.09 94.50 94.88 95.05
9/13/2017 22:00 to 21:10 95.59 95.89 95.64 95.32 94.27 92.50
9/13/2017 21:00 to 20:10 88.33 77.31 73.90 70.97 79.86 80.13
9/13/2017 20:00 to 19:10 83.32 83.29 81.78 85.63 91.17 92.27
9/13/2017 19:00 to 18:10 95.13 95.64 95.66 95.59 94.56 93.02
9/13/2017 18:00 to 17:10 90.06 83.74 84.12 84.47 85.61 87.38
9/13/2017 17:00 to 16:10 88.39 88.90 90.60 91.72 92.10 93.15
9/13/2017 16:00 to 15:10 93.00 91.85 89.17 86.96 86.39 86.43
9/13/2017 15:00 to 14:10 86.83 87.09 88.35 87.91 88.92 89.82
9/13/2017 14:00 to 13:10 90.39 90.64 91.34 92.25 92.71 92.08
9/13/2017 13:00 to 12:10 91.21 91.38 89.47 84.28 82.70 83.53
9/13/2017 12:00 to 11:10 86.33 87.82 88.01 89.47 90.73 90.88
9/13/2017 11:00 to 10:10 92.50 92.77 92.92 93.05 93.00 93.15
9/13/2017 10:00 to 9:10 92.86 92.29 91.28 90.60 87.78 83.21
9/13/2017 09:00 to 8:10 86.12 87.55 87.93 88.31 89.49 89.19
9/13/2017 08:00 to 7:10 89.23 88.98 87.40 85.21 79.65 78.91
9/13/2017 07:00 to 6:10 78.47 77.35 76.09 76.62 76.58 81.04
9/13/2017 06:00 to 5:10 83.10 82.09 86.29 86.52 81.29 83.27
9/13/2017 05:00 to 4:10 78.32 79.73 81.06 81.40 81.10 81.40
9/13/2017 04:00 to 3:10 79.80 79.86 75.56 74.36 74.66 75.54
9/13/2017 03:00 to 2:10 75.59 75.56 75.86 76.05 76.24 77.73
9/13/2017 02:00 to 1:10 78.20 81.48 82.35 81.25 81.38 80.96
9/13/2017 01:00 to 0:10 82.98 83.59 82.87 82.11 84.01 82.66